Miscellaneous Local Product
Issued by NWS North Platte, NE

Home | Current Version | Previous Version | Graphics & Text | Print | Product List | Glossary On
Versions: 1 2 3 4 5 6 7 8 9 10 11 12 13 14 15 16 17 18 19 20 21 22 23 24 25 26 27 28 29 30 31 32 33 34 35 36 37 38 39 40 41 42 43 44 45 46 47 48 49 50
000
AXUS43 KLBF 190110
MISLBF


WESTERN AND NORTH CENTRAL NEBRASKA HOURLY WEATHER ROUNDUP
NATIONAL WEATHER SERVICE NORTH PLATTE NE
700 PM CST SAT FEB 18 2017

NOTE: "FAIR" INDICATES FEW OR NO CLOUDS BELOW 12,000 FEET WITH NO
SIGNIFICANT WEATHER AND/OR OBSTRUCTIONS TO VISIBILITY.

NOTE: STATIONS NOT REPORTING VARIABLES SUCH AS SKY/WEATHER OR
PRESSURE ARE PROVIDED BY RAWS AND APRS NETWORKS AND ARE NOT UNDER
NATIONAL WEATHER SERVICE QUALITY CONTROL.

...OBSERVATIONS IN AND NEAR THE EASTERN PANHANDLE OF NEBRASKA...

CITY           SKY/WX    TMP DP  RH WIND       PRES   REMARKS
PINE RIDGE     CLEAR     53  31  42 S13       29.64S
CHADRON        CLEAR     51  30  44 S13       29.62R
ALLIANCE       CLOUDY    44  27  51 SE8       29.66S
SIDNEY         CLOUDY    50  26  39 SE13      29.67S
CRESCENT LAKE    N/A     49  28  44 SE6         N/A
$$

...OBSERVATIONS IN NORTHERN NEBRASKA AND FAR SOUTHERN SOUTH DAKOTA...

CITY           SKY/WX    TMP DP  RH WIND       PRES   REMARKS
WINNER         FAIR      53  31  42 S13       29.68F
VALENTINE      CLEAR     51  29  42 S9        29.70R
THEDFORD       PTCLDY    52  33  47 SE7       29.73S
AINSWORTH      CLOUDY    50  30  45 SE12      29.72S
O`NEILL        PTCLDY    51  34  51 SE7       29.77R
ORD            MOCLDY    48  31  51 E3        29.76R
BROKEN BOW     CLOUDY    51  33  50 SE8       29.75S
VALENTINE NWR    N/A     55  29  37 S9G16       N/A
CHAMBERS         N/A     46  26  45 CALM        N/A
EWING            N/A     48  37  65 CALM        N/A
$$

...OBSERVATIONS IN SOUTHWEST NEBRASKA AND FAR NORTHEAST COLORADO...

CITY           SKY/WX    TMP DP  RH WIND       PRES   REMARKS
HOLYOKE        FAIR      55  30  38 SE12      29.68F
IMPERIAL       CLOUDY    51  31  46 SE13      29.71F
OGALLALA       CLOUDY    53  32  44 E6        29.70F
NORTH PLATTE   CLEAR     46  30  53 SE8       29.72F
MCCOOK         CLOUDY    52  35  52 E8        29.73S
LEXINGTON      PTCLDY    55  34  45 SE7       29.75S
STAPLETON        N/A     50  33  51 CALM        N/A
GOTHENBURG       N/A     54  32  43 SE3         N/A
CALLAWAY         N/A     48  34  59 SE9         N/A
$$

...OBSERVATIONS IN CENTRAL LINCOLN COUNTY AREA...

CITY           SKY/WX    TMP DP  RH WIND       PRES   REMARKS
N.P. AIRPORT   CLEAR     46  30  53 SE8       29.72F
N.P. DOWNTOWN    N/A     54  34  46 CALM        N/A
N.P. SOUTHEAST   N/A     52  32  47 SE3         N/A
N.P. HILLCREST   N/A     54  33  45 SE9         N/A
$$

...SOME OBSERVATIONS FROM AROUND THE REGION...

CITY           SKY/WX    TMP DP  RH WIND       PRES   REMARKS
LARAMIE        CLOUDY    42  27  55 NE9       29.72R
CHEYENNE       CLOUDY    50  20  30 CALM      29.70R
DENVER         CLOUDY    54  23  30 S14       29.65R
AKRON          CLOUDY    53  20  27 SE14      29.70R
SCOTTSBLUFF    CLOUDY    50  27  40 E8        29.63F
RAPID CITY     CLEAR     52  31  44 SE8       29.59R
BISMARCK       CLOUDY    37  33  85 E8        29.69S WCI  31
PIERRE         CLEAR     50  34  54 SE15      29.64S
SIOUX FALLS    CLOUDY    44  40  85 CALM      29.79R
OMAHA          MOCLDY    54  32  43 E6        29.80R
GRAND ISLAND   PTCLDY    55  33  43 E5        29.78R
KANSAS CITY    PTCLDY    63  42  46 CALM      29.81R
WICHITA        CLOUDY    56  45  66 S8        29.78R
OKLAHOMA CITY  MOCLDY    55  48  77 SE7       29.79S
DALLAS         PTCLDY    71  47  42 E6        29.73S
AMARILLO       CLOUDY    55  36  48 SE13      29.78R
DODGE CITY     CLOUDY    56  37  49 SE10      29.76R
HAYS           MOCLDY    57  37  47 SE9       29.74R
GOODLAND       CLOUDY    48  28  46 SE9       29.71S
$$




USA.gov is the U.S. government's official web portal to all federal, state and local government web resources and services.